Regional Weather Roundup
Issued by NWS

Home | Current Version | Previous Version | Graphics & Text | Print | Product List | Glossary On
Versions: 1 2 3 4 5 6 7 8 9 10 11 12 13 14 15 16 17 18 19 20 21 22 23 24 25 26 27 28 29 30 31 32 33 34 35 36 37 38 39 40 41 42 43 44 45 46 47 48 49 50
000
ASUS43 KFSD 271610
RWRSD

WEATHER ROUNDUP FOR SOUTH DAKOTA
NATIONAL WEATHER SERVICE SIOUX FALLS SD
1100 AM CDT THU APR 27 2017

NOTE: "FAIR" INDICATES FEW OR NO CLOUDS BELOW 12,000 FEET WITH NO
SIGNIFICANT WEATHER AND/OR OBSTRUCTIONS TO VISIBILITY.


SDZ001>005-009-010-012>017-271700-
NORTHWEST AND NORTH CENTRAL SOUTH DAKOTA

CITY           SKY/WX    TMP DP  RH WIND       PRES   REMARKS
BUFFALO          N/A     33  28  81 NE10      29.61R WCI  25
FAITH            N/A     35  27  72 NE12      29.69S WCI  27
MOBRIDGE       CLOUDY    41  26  55 N12       29.69F
$$

SDZ012>016-024>037-041>051-057-063-072>074-271700-
SOUTHWEST AND SOUTH CENTRAL SOUTH DAKOTA

CITY           SKY/WX    TMP DP  RH WIND       PRES   REMARKS
RAPID CTY ARPT CLOUDY    40  32  73 VRB6      29.66S
PIERRE         CLOUDY    36  27  69 VRB3      29.72S
CUSTER         CLOUDY    35  27  72 E12       29.59R WCI  27
ELLSWORTH AFB  CLOUDY    38  34  83 E6        29.65S
PHILIP         CLOUDY    33  30  88 E9        29.72R WCI  25
PINE RIDGE     CLOUDY    43  33  68 E10       29.63F
SPEARFISH      PTSUNNY   37  32  81 E12       29.62S
WINNER         CLOUDY    39  29  67 VRB5      29.72F
$$

SDZ004>011-016>023-039-040-271700-
NORTHEAST SOUTH DAKOTA

CITY           SKY/WX    TMP DP  RH WIND       PRES   REMARKS
ABERDEEN       CLOUDY    32  26  78 N14       29.73R WCI  22
WATERTOWN      CLOUDY    29  24  82 NW18      29.66R WCI  16
BROOKINGS      CLOUDY    31  25  78 NW18      29.66S WCI  19
SISSETON         N/A     31  24  75 N22       29.68R WCI  18
$$

SDZ017-020-022-023-036>040-048>070-271700-
SOUTHEAST SOUTH DAKOTA

CITY           SKY/WX    TMP DP  RH WIND       PRES   REMARKS
SIOUX FALLS    CLOUDY    35  27  72 NW14      29.70R WCI  26
HURON          CLOUDY    36  26  67 N14       29.73R
CHAMBERLAIN    PTSUNNY   40  30  66 NW8       29.73S
MITCHELL       CLOUDY    37  27  67 NW12      29.74R
YANKTON        PTSUNNY   37  27  65 NW9       29.72F
$$

ABBREVIATIONS USED IN REMARKS
   TC - TEMPERATURE IN CELSIUS
  WCI - WIND CHILL INDEX
   HX - HEAT INDEX
  VSB - VISIBILITY




USA.gov is the U.S. government's official web portal to all federal, state and local government web resources and services.